EW5860 Weather Reports


Display with metric or nautical units.
time (UTC)temp
F
wind
direction
speed
MPH
gust
MPH
rain 1hr
in
rain 24hr
in
rain mn
in
humidity
%
barometer
mb
20260506171516 61 199 6.0 18.0 0.01 0.20 0.20 91 1007.4
20260506170014 61 223 6.0 14.0 0.01 0.20 0.20 91 1007.8
20260506164514 61 213 6.0 18.0 0.02 0.20 0.20 92 1007.7
20260506163022 61 175 4.0 11.0 0.03 0.20 0.20 93 1007.5
20260506161512 60 148 4.0 12.0 0.06 0.19 0.19 93 1007.3
20260506160008 60 225 5.0 13.0 0.08 0.19 0.19 92 1007.9
20260506154522 60 218 3.0 13.0 0.09 0.18 0.18 93 1008.6
20260506153003 60 194 3.0 8.0 0.09 0.17 0.17 92 1008.6
20260506151600 61 280 3.0 10.0 0.09 0.14 0.14 92 1008.9
20260506150058 61 217 4.0 10.0 0.09 0.11 0.11 91 1008.6
20260506144557 61 219 4.0 8.0 0.08 0.09 0.09 91 1008.8
20260506143057 61 206 2.0 11.0 0.08 0.08 0.08 90 1008.6
20260506141554 62 234 1.0 10.0 0.05 0.05 0.05 88 1008.6
20260506140051 62 167 2.0 10.0 0.02 0.02 0.02 87 1008.6
20260506134550 63 202 5.0 14.0 0.01 0.01 0.01 85 1008.5
20260506133050 63 213 3.0 8.0 0.00 0.00 0.00 84 1008.5
20260506131547 63 267 2.0 9.0 0.00 0.00 0.00 84 1008.8
20260506130047 63 229 5.0 11.0 0.00 0.00 0.00 82 1008.8
20260506124546 64 198 8.0 17.0 0.00 0.00 0.00 80 1008.9
20260506123041 65 233 7.0 16.0 0.00 0.00 0.00 78 1008.7
20260506121547 65 175 9.0 17.0 0.00 0.00 0.00 77 1008.6
20260506120041 65 166 9.0 19.0 0.00 0.00 0.00 76 1008.3
20260506114541 65 232 8.0 18.0 0.00 0.00 0.00 77 1008.2
20260506113038 65 214 6.0 16.0 0.00 0.00 0.00 77 1008.1
20260506111536 65 203 6.0 17.0 0.00 0.00 0.00 76 1008.0
20260506110037 65 209 8.0 22.0 0.00 0.00 0.00 76 1008.1
20260506104534 65 222 7.0 21.0 0.00 0.00 0.00 76 1007.7
20260506103031 65 213 6.0 23.0 0.00 0.00 0.00 75 1007.6
20260506101530 65 218 9.0 19.0 0.00 0.00 0.00 75 1007.8
20260506100030 66 229 9.0 14.0 0.00 0.00 0.00 74 1007.7
20260506094523 66 254 7.0 22.0 0.00 0.00 0.00 74 1007.8
20260506093022 66 229 7.0 21.0 0.00 0.00 0.00 74 1007.8
20260506091520 66 194 8.0 15.0 0.00 0.00 0.00 74 1007.7
20260506090016 66 212 8.0 15.0 0.00 0.00 0.00 73 1007.9
20260506084517 67 211 9.0 18.0 0.00 0.00 0.00 72 1008.0
20260506083016 67 167 8.0 19.0 0.00 0.00 0.00 71 1008.0
20260506081509 67 214 6.0 15.0 0.00 0.00 0.00 71 1008.0
20260506073006 67 196 6.0 12.0 0.00 0.00 0.00 68 1008.1
20260506071601 67 227 4.0 12.0 0.00 0.00 0.00 67 1008.2
20260506061552 68 212 6.0 18.0 0.00 0.00 0.00 62 1008.8
20260506050104 69 199 2.0 9.0 0.00 0.00 0.00 58 1009.3
20260506044543 69 205 5.0 11.0 0.00 0.00 0.00 58 1009.2
20260506043036 69 209 2.0 11.0 0.00 0.00 0.00 57 1009.2
20260506041549 69 214 2.0 11.0 0.00 0.00 0.00 57 1009.3
20260506040033 69 227 5.0 10.0 0.00 0.00 0.00 57 1009.2
20260506034546 70 209 2.0 9.0 0.00 0.00 0.00 56 1009.2
20260506033031 70 205 4.0 10.0 0.00 0.00 0.00 56 1009.2
20260506031530 70 196 5.0 10.0 0.00 0.00 0.00 55 1009.1
20260506030032 70 188 3.0 12.0 0.00 0.00 0.00 55 1009.1
20260506024530 71 202 4.0 12.0 0.00 0.00 0.00 54 1009.2
20260506023028 71 119 3.0 8.0 0.00 0.00 0.00 53 1009.2
20260506021528 71 217 4.0 10.0 0.00 0.00 0.00 52 1009.2
20260506020027 72 250 2.0 10.0 0.00 0.00 0.00 50 1009.1
20260506014526 73 238 6.0 13.0 0.00 0.00 0.00 49 1009.0
20260506013037 73 206 5.0 12.0 0.00 0.00 0.00 48 1009.0
20260506011527 73 254 2.0 10.0 0.00 0.00 0.00 46 1008.8
20260506010026 74 209 2.0 8.0 0.00 0.00 0.00 45 1008.7
20260506004524 74 242 2.0 8.0 0.00 0.00 0.00 44 1008.5
20260506003024 75 241 1.0 8.0 0.00 0.00 0.00 43 1008.4
20260506001523 76 180 7.0 14.0 0.00 0.00 0.00 42 1008.3
20260506000023 76 173 5.0 10.0 0.00 0.00 0.00 42 1008.1
20260505234522 76 230 2.0 8.0 0.00 0.00 0.00 41 1008.1
20260505233027 77 229 2.0 12.0 0.00 0.00 0.00 41 1007.8
20260505231523 77 211 4.0 8.0 0.00 0.00 0.00 41 1007.8
20260505230021 78 162 2.0 11.0 0.00 0.00 0.00 40 1007.8
20260505224520 78 231 6.0 14.0 0.00 0.00 0.00 38 1007.8
20260505223019 79 238 6.0 17.0 0.00 0.00 0.00 38 1007.9
20260505221519 80 114 9.0 18.0 0.00 0.00 0.00 36 1007.7
20260505220030 80 183 8.0 17.0 0.00 0.00 0.00 36 1007.7
20260505214522 80 217 8.0 19.0 0.00 0.00 0.00 37 1007.6
20260505213017 80 220 8.0 21.0 0.00 0.00 0.00 36 1007.7
20260505211517 80 193 4.0 21.0 0.00 0.00 0.00 37 1007.5
20260505210016 80 120 7.0 21.0 0.00 0.00 0.00 37 1007.5
20260505204515 80 219 7.0 19.0 0.00 0.00 0.00 37 1007.6
20260505203015 80 236 6.0 19.0 0.00 0.00 0.00 38 1007.7
20260505201512 80 217 9.0 17.0 0.00 0.00 0.00 37 1007.8
20260505200016 80 180 10.0 21.0 0.00 0.00 0.00 37 1008.1
20260505194511 80 238 8.0 19.0 0.00 0.00 0.00 37 1008.0
20260505193014 80 184 9.0 18.0 0.00 0.00 0.00 37 1008.1
20260505191521 80 165 6.0 16.0 0.00 0.00 0.00 37 1008.2
20260505190011 80 207 5.0 17.0 0.00 0.00 0.00 36 1008.3
20260505184508 81 180 4.0 18.0 0.00 0.00 0.00 39 1008.4
20260505183007 81 260 6.0 14.0 0.00 0.00 0.00 41 1008.4
20260505181505 80 213 6.0 19.0 0.00 0.00 0.00 41 1008.5
20260505180005 80 177 7.0 16.0 0.00 0.00 0.00 41 1008.9
20260505174505 80 264 8.0 18.0 0.00 0.00 0.00 37 1008.9
20260505173002 80 187 6.0 17.0 0.00 0.00 0.00 39 1008.9